User: anonymous   Login
Location: ?????
(44.4284°N, 135.2222°E)
Time: 05:14:37
(UTC+00:00)
Language:

Cosmos 1805 - Orbit

View from above orbital plane
View from above orbital plane
View from above satellite
View from above satellite

Ground track
Ground track

The orbit is defined by the following mean orbital elements,

1 17191U          26102.84492291 +.00000000 +00000-0 +29091-3 0 00006
2 17191  82.4577  59.6730 0003889  64.7845 295.3808 15.49372674    09
Epoch (UTC): 12 April 2026 20:16:41
Eccentricity: 0.0003889
inclination: 82.4577°
perigee height: 416 km
apogee height: 421 km
right ascension of ascending node: 59.6730°
argument of perigee: 64.7845°
revolutions per day: 15.49372674
mean anomaly at epoch: 295.3808°

The dashed part of the orbit path shows where the satellite is in the earth's shadow,  

DLR